Southend-On-Sea, United Kingdom

5:40 AM GMT on February 21, 2018 (GMT +0000)
Southend

Weather History for EGMC - April, 2013

Change the Weather History Date:

Thursday, April 18, 2013

  Actual Average Record
Temperature  
Mean Temperature 54 °F -  
Max Temperature 59 °F 58 °F 62 °F (2003)
Min Temperature 46 °F 44 °F 32 °F (1997)
Degree Days  
Heating Degree Days 12    
Growing Degree Days 4 (Base 50)    
Moisture  
Dew Point 39 °F    
Average Humidity 64    
Maximum Humidity 82    
Minimum Humidity 48    
Precipitation  
Precipitation 0.00 in - - ()
Sea Level Pressure  
Sea Level Pressure 29.91 in    
Wind  
Wind Speed 20 mph ()    
Max Wind Speed 32 mph    
Max Gust Speed 44 mph    
Visibility 6.2 miles    
Events      
Averages and records for this station are not official NWS values.
T = Trace of Precipitation, MM = Missing Value Source: Averaged Metar Reports

Daily Weather History Graph

Daily Weather History Graph

Search for Another Location

Airport or City:

Trip Planner

Search our weather history database for the weather conditions in past years. The results will help you decide how hot, cold, wet, or windy it might be!

Date:

Astronomy

Apr. 18, 2013 Rise Set
Actual Time 5:54 AM BST 7:59 PM BST
Civil Twilight 5:18 AM BST 8:35 PM BST
Nautical Twilight 4:34 AM BST 9:20 PM BST
Astronomical Twilight 3:43 AM BST 10:12 PM BST
Moon 11:42 AM BST (4/18) 2:15 AM BST (4/18)
Length of Visible Light 15h 16m
Length of Day
14h 04m
Waxing Crescent, 49% of the Moon is Illuminated
Apr 18
Waxing Crescent
Apr 18
First Quarter
Apr 25
Full
May 2
Last Quarter
May 10
New

Hourly Weather History & Observations

Time (BST) Temp. Windchill Dew Point Humidity Pressure Visibility Wind Dir Wind Speed Gust Speed Precip Events Conditions
12:20 AM 53.6 °F - 42.8 °F 67% 29.80 in - SW 21.9 mph - N/A   Clear
12:50 AM 51.8 °F - 42.8 °F 71% 29.80 in - SW 17.3 mph - N/A   Clear
1:50 AM 50.0 °F - 42.8 °F 76% 29.80 in - SW 18.4 mph - N/A   Clear
2:50 AM 50.0 °F - 42.8 °F 76% 29.80 in - SW 17.3 mph - N/A   Clear
3:50 AM 48.2 °F - 41.0 °F 76% 29.80 in - SW 16.1 mph - N/A   Clear
4:50 AM 48.2 °F - 41.0 °F 76% 29.80 in - SW 17.3 mph - N/A   Clear
5:20 AM 48.2 °F - 39.2 °F 71% 29.80 in - SW 23.0 mph - N/A   Clear
5:50 AM 48.2 °F - 39.2 °F 71% 29.83 in - SW 24.2 mph - N/A   Clear
6:20 AM 48.2 °F - 39.2 °F 71% 29.83 in 6.2 mi SW 21.9 mph - N/A   Partly Cloudy
6:50 AM 48.2 °F - 39.2 °F 71% 29.83 in 6.2 mi SW 20.7 mph - N/A   Partly Cloudy
7:20 AM 50.0 °F - 37.4 °F 62% 29.86 in 6.2 mi SW 26.5 mph - N/A   Partly Cloudy
7:50 AM 50.0 °F - 37.4 °F 62% 29.86 in 6.2 mi SW 26.5 mph - N/A   Partly Cloudy
8:20 AM 51.8 °F - 39.2 °F 62% 29.86 in 6.2 mi SW 26.5 mph 39.1 mph N/A   Scattered Clouds
8:50 AM 51.8 °F - 37.4 °F 58% 29.86 in 6.2 mi SW 29.9 mph 41.4 mph N/A   Scattered Clouds
9:20 AM 53.6 °F - 37.4 °F 54% 29.89 in 6.2 mi SW 29.9 mph 41.4 mph N/A   Scattered Clouds
9:50 AM 53.6 °F - 37.4 °F 54% 29.89 in 6.2 mi SW 32.2 mph 43.7 mph N/A   Mostly Cloudy
10:20 AM 53.6 °F - 37.4 °F 54% 29.89 in 6.2 mi SW 27.6 mph - N/A   Mostly Cloudy
10:50 AM 55.4 °F - 37.4 °F 51% 29.89 in 6.2 mi SW 26.5 mph - N/A   Mostly Cloudy
11:20 AM 55.4 °F - 39.2 °F 54% 29.92 in 6.2 mi SW 26.5 mph 39.1 mph N/A   Scattered Clouds
11:50 AM 57.2 °F - 39.2 °F 51% 29.92 in 6.2 mi SW 31.1 mph 42.6 mph N/A   Scattered Clouds
12:20 PM 57.2 °F - 41.0 °F 55% 29.92 in 6.2 mi SW 26.5 mph 40.3 mph N/A   Scattered Clouds
12:50 PM 57.2 °F - 41.0 °F 55% 29.92 in 6.2 mi SW 26.5 mph - N/A   Scattered Clouds
1:20 PM 55.4 °F - 39.2 °F 54% 29.92 in 6.2 mi SW 24.2 mph 35.7 mph N/A   Scattered Clouds
1:50 PM 59.0 °F - 39.2 °F 48% 29.92 in 6.2 mi SW 23.0 mph 34.5 mph N/A   Scattered Clouds
2:20 PM 59.0 °F - 41.0 °F 51% 29.92 in 6.2 mi SW 24.2 mph - N/A   Scattered Clouds
2:50 PM 59.0 °F - 39.2 °F 48% 29.92 in 6.2 mi SW 25.3 mph 36.8 mph N/A   Scattered Clouds
3:20 PM 57.2 °F - 37.4 °F 48% 29.92 in 6.2 mi SW 27.6 mph 39.1 mph N/A   Scattered Clouds
3:50 PM 50.0 °F - 39.2 °F 66% 29.95 in 6.2 mi West 23.0 mph 34.5 mph N/A   Scattered Clouds
4:20 PM 51.8 °F - 41.0 °F 67% 29.95 in 6.2 mi WSW 17.3 mph - N/A   Scattered Clouds
4:50 PM 48.2 °F - 42.8 °F 82% 29.95 in 6.2 mi WSW 13.8 mph - N/A   Scattered Clouds
5:20 PM 51.8 °F - 44.6 °F 76% 29.95 in 6.2 mi SW 20.7 mph 33.4 mph N/A   Partly Cloudy
5:50 PM 51.8 °F - 42.8 °F 71% 29.95 in 6.2 mi SW 19.6 mph - N/A   Partly Cloudy
6:20 PM 51.8 °F - 42.8 °F 71% 29.95 in 6.2 mi SW 21.9 mph - N/A   Partly Cloudy
6:50 PM 50.0 °F - 42.8 °F 76% 29.98 in 6.2 mi SW 18.4 mph - N/A   Partly Cloudy
7:20 PM 50.0 °F - 42.8 °F 76% 29.98 in 6.2 mi SW 17.3 mph - N/A   Partly Cloudy
7:50 PM 50.0 °F - 42.8 °F 76% 29.98 in 6.2 mi SW 15.0 mph - N/A   Partly Cloudy
8:20 PM 50.0 °F - 42.8 °F 76% 30.01 in 6.2 mi WSW 15.0 mph - N/A   Partly Cloudy
8:50 PM 50.0 °F - 35.6 °F 58% 30.01 in 6.2 mi WSW 16.1 mph - N/A   Partly Cloudy
9:20 PM 50.0 °F - 32.0 °F 50% 30.04 in - WSW 17.3 mph - N/A   Clear
9:50 PM 48.2 °F - 33.8 °F 58% 30.04 in - WSW 16.1 mph - N/A   Clear
10:20 PM 48.2 °F - 33.8 °F 58% 30.04 in - WSW 17.3 mph - N/A   Clear
10:50 PM 48.2 °F - 33.8 °F 58% 30.04 in - WSW 17.3 mph - N/A   Clear
11:50 PM 46.4 °F 40.4 °F 35.6 °F 66% 30.06 in - WSW 13.8 mph - N/A   Clear